TimeMDT,TemperatureF,Dew PointF,Humidity,Sea Level PressureIn,VisibilityMPH,Wind Direction,Wind SpeedMPH,Gust SpeedMPH,PrecipitationIn,Events,Conditions,WindDirDegrees,DateUTC
12:53 AM,53.1,46.9,80,29.81,10.0,Calm,Calm,-,N/A,,Clear,0,2013-10-02 06:53:00
1:53 AM,53.1,48.0,83,29.81,10.0,East,4.6,-,N/A,,Clear,90,2013-10-02 07:53:00
2:53 AM,50.0,46.0,86,29.79,10.0,Calm,Calm,-,N/A,,Clear,0,2013-10-02 08:53:00
3:53 AM,50.0,46.9,89,29.77,10.0,ENE,3.5,-,N/A,,Clear,70,2013-10-02 09:53:00
4:53 AM,50.0,46.9,89,29.76,10.0,East,5.8,-,N/A,,Clear,80,2013-10-02 10:53:00
5:53 AM,48.0,45.0,89,29.78,10.0,Calm,Calm,-,N/A,,Clear,0,2013-10-02 11:53:00
6:53 AM,46.9,44.1,90,29.81,8.0,Calm,Calm,-,N/A,,Clear,0,2013-10-02 12:53:00
7:53 AM,50.0,46.9,89,29.83,8.0,Calm,Calm,-,N/A,,Clear,0,2013-10-02 13:53:00
8:53 AM,57.0,48.9,74,29.82,10.0,Calm,Calm,-,N/A,,Clear,0,2013-10-02 14:53:00
9:53 AM,66.0,48.0,52,29.81,10.0,West,8.1,-,N/A,,Clear,260,2013-10-02 15:53:00
10:53 AM,70.0,46.0,42,29.80,10.0,West,6.9,-,N/A,,Clear,260,2013-10-02 16:53:00
11:53 AM,75.0,43.0,32,29.77,10.0,Variable,3.5,-,N/A,,Clear,0,2013-10-02 17:53:00
12:53 PM,78.1,42.1,28,29.74,10.0,Variable,3.5,-,N/A,,Clear,0,2013-10-02 18:53:00
1:53 PM,81.0,41.0,24,29.71,10.0,Calm,Calm,-,N/A,,Clear,0,2013-10-02 19:53:00
2:53 PM,84.0,41.0,22,29.69,10.0,SE,6.9,-,N/A,,Clear,140,2013-10-02 20:53:00
3:53 PM,86.0,37.0,18,29.66,10.0,SE,4.6,-,N/A,,Clear,130,2013-10-02 21:53:00
4:53 PM,86.0,35.1,16,29.65,10.0,SSW,10.4,-,N/A,,Clear,210,2013-10-02 22:53:00
5:53 PM,82.9,36.0,19,29.66,10.0,Calm,Calm,-,N/A,,Clear,0,2013-10-02 23:53:00
6:53 PM,73.9,37.9,27,29.68,10.0,SSE,10.4,-,N/A,,Clear,160,2013-10-03 00:53:00
7:53 PM,71.1,39.0,31,29.69,10.0,South,11.5,-,N/A,,Clear,170,2013-10-03 01:53:00
8:53 PM,61.0,41.0,48,29.70,10.0,Calm,Calm,-,N/A,,Clear,0,2013-10-03 02:53:00
9:53 PM,64.0,39.0,40,29.68,10.0,Calm,Calm,-,N/A,,Clear,0,2013-10-03 03:53:00
10:53 PM,53.1,43.0,69,29.68,10.0,WNW,3.5,-,N/A,,Clear,300,2013-10-03 04:53:00
11:53 PM,54.0,42.1,64,29.66,10.0,Calm,Calm,-,N/A,,Clear,0,2013-10-03 05:53:00